0610300051,2012,01,01,00,2.27
0610300051,2012,01,01,01,2.24
0610300051,2012,01,01,02,1.36
0610300051,2012,01,01,03,1.13
0610300051,2012,01,01,04,0.74
0610300051,2012,01,01,05,0.56
0610300051,2012,01,01,06,0.66
0610300051,2012,01,01,07,0.98
0610300051,2012,01,01,08,1.1
0610300051,2012,01,01,09,1.61
0610300051,2012,01,01,10,2.19
0610300051,2012,01,01,11,2.55
0610300051,2012,01,01,12,2.62
0610300051,2012,01,01,13,2.74
0610300051,2012,01,01,14,2.71
0610300051,2012,01,01,15,1.86
0610300051,2012,01,01,16,0.6
0610300051,2012,01,01,17,0.81
0610300051,2012,01,01,18,0.6
0610300051,2012,01,01,19,0.79
0610300051,2012,01,01,20,0.59
0610300051,2012,01,01,21,0.82
0610300051,2012,01,01,22,0.76
0610300051,2012,01,01,23,0.62
0610300051,2012,01,02,00,1.04
0610300051,2012,01,02,01,0.87
0610300051,2012,01,02,02,0.7
0610300051,2012,01,02,03,0.6
0610300051,2012,01,02,04,0.76
0610300051,2012,01,02,05,0.7
0610300051,2012,01,02,06,0.66
0610300051,2012,01,02,07,0.71
0610300051,2012,01,02,08,0.9
0610300051,2012,01,02,09,1.15
0610300051,2012,01,02,10,1.75
0610300051,2012,01,02,11,2.54
0610300051,2012,01,02,12,2.86
0610300051,2012,01,02,13,3.29
0610300051,2012,01,02,14,3.34
0610300051,2012,01,02,15,2.95
0610300051,2012,01,02,16,1.32
0610300051,2012,01,02,17,0.8
0610300051,2012,01,02,18,0.93
0610300051,2012,01,02,19,1.01
0610300051,2012,01,02,20,1.57
0610300051,2012,01,02,21,2.1
0610300051,2012,01,02,22,1.32
0610300051,2012,01,02,23,1.34
0610300051,2012,01,03,00,1.56
0610300051,2012,01,03,01,1.61
0610300051,2012,01,03,02,1.1
0610300051,2012,01,03,03,1.1
0610300051,2012,01,03,04,1.16
0610300051,2012,01,03,05,1.09
0610300051,2012,01,03,06,0.93
0610300051,2012,01,03,07,0.95
0610300051,2012,01,03,08,1.06
0610300051,2012,01,03,09,1.93
0610300051,2012,01,03,10,1.77
0610300051,2012,01,03,11,2.08
0610300051,2012,01,03,12,2.68
0610300051,2012,01,03,13,2.93
0610300051,2012,01,03,14,2.9
0610300051,2012,01,03,15,1.8
0610300051,2012,01,03,16,0.65
0610300051,2012,01,03,17,0.6
0610300051,2012,01,03,18,0.6
0610300051,2012,01,03,19,0.81
0610300051,2012,01,03,20,1
0610300051,2012,01,03,21,0.51
0610300051,2012,01,03,22,1.03
0610300051,2012,01,03,23,1.14
0610300051,2012,01,04,00,0.81
0610300051,2012,01,04,01,1.04
0610300051,2012,01,04,02,0.86
0610300051,2012,01,04,03,1.37
0610300051,2012,01,04,04,1.54
0610300051,2012,01,04,05,0.88
0610300051,2012,01,04,06,0.54
0610300051,2012,01,04,07,0.71
0610300051,2012,01,04,08,1.53
0610300051,2012,01,04,09,1.56
0610300051,2012,01,04,10,1.62
0610300051,2012,01,04,11,2.6
0610300051,2012,01,04,12,2.61
0610300051,2012,01,04,13,2.68
0610300051,2012,01,04,14,2.68
0610300051,2012,01,04,15,1.59
0610300051,2012,01,04,16,0.53
0610300051,2012,01,04,17,0.53
0610300051,2012,01,04,18,0.68
0610300051,2012,01,04,19,0.59
0610300051,2012,01,04,20,0.73
0610300051,2012,01,04,21,1.36
0610300051,2012,01,04,22,1.27
0610300051,2012,01,04,23,1.37
0610300051,2012,01,05,00,1.77
0610300051,2012,01,05,01,1.35
0610300051,2012,01,05,02,0.85
0610300051,2012,01,05,03,0.91
0610300051,2012,01,05,04,0.72
0610300051,2012,01,05,05,0.48
0610300051,2012,01,05,06,0.47
0610300051,2012,01,05,07,0.52
0610300051,2012,01,05,08,0.76
0610300051,2012,01,05,09,1.27
0610300051,2012,01,05,10,1.52
0610300051,2012,01,05,11,1.99
0610300051,2012,01,05,12,2.9
0610300051,2012,01,05,13,3.38
0610300051,2012,01,05,14,3.16
0610300051,2012,01,05,15,2.05
0610300051,2012,01,05,16,0.58
0610300051,2012,01,05,17,0.7
0610300051,2012,01,05,18,0.95
0610300051,2012,01,05,19,0.91
0610300051,2012,01,05,20,0.6
0610300051,2012,01,05,21,0.6
0610300051,2012,01,05,22,0.64
0610300051,2012,01,05,23,0.86
0610300051,2012,01,06,00,1.58
0610300051,2012,01,06,01,2.16
0610300051,2012,01,06,02,2.05
0610300051,2012,01,06,03,1.79
0610300051,2012,01,06,04,1
0610300051,2012,01,06,05,0.55
0610300051,2012,01,06,06,0.77
0610300051,2012,01,06,07,0.8
0610300051,2012,01,06,08,1.01
0610300051,2012,01,06,09,0.74
0610300051,2012,01,06,10,1.44
0610300051,2012,01,06,11,1.8
0610300051,2012,01,06,12,2.28
0610300051,2012,01,06,13,2.58
0610300051,2012,01,06,14,2.54
0610300051,2012,01,06,15,1.85
0610300051,2012,01,06,16,0.65
0610300051,2012,01,06,17,0.62
0610300051,2012,01,06,18,0.69
0610300051,2012,01,06,19,1.19
0610300051,2012,01,06,20,1.46
0610300051,2012,01,06,21,1.28
0610300051,2012,01,06,22,1.29
0610300051,2012,01,06,23,1.35
0610300051,2012,01,07,00,2.39
0610300051,2012,01,07,01,2.83
0610300051,2012,01,07,02,2.96
0610300051,2012,01,07,03,2.77
0610300051,2012,01,07,04,2
0610300051,2012,01,07,05,2.23
0610300051,2012,01,07,06,2.64
0610300051,2012,01,07,07,2.58
0610300051,2012,01,07,08,3.17
0610300051,2012,01,07,09,3.37
0610300051,2012,01,07,10,3.74
0610300051,2012,01,07,11,3.87
0610300051,2012,01,07,12,3.96
0610300051,2012,01,07,13,3.92
0610300051,2012,01,07,14,3.83
0610300051,2012,01,07,15,3.7
0610300051,2012,01,07,16,3.62
0610300051,2012,01,07,17,3.41
0610300051,2012,01,07,18,3.21
0610300051,2012,01,07,19,2.91
0610300051,2012,01,07,20,3.05
0610300051,2012,01,07,21,2.54
0610300051,2012,01,07,22,1.85
0610300051,2012,01,07,23,2.11
0610300051,2012,01,08,00,2.71
0610300051,2012,01,08,01,2.15
0610300051,2012,01,08,02,2.76
0610300051,2012,01,08,03,3.12
0610300051,2012,01,08,04,2.21
0610300051,2012,01,08,05,2.1
0610300051,2012,01,08,06,2.21
0610300051,2012,01,08,07,2.53
0610300051,2012,01,08,08,3.16
0610300051,2012,01,08,09,3.62
0610300051,2012,01,08,10,3.75
0610300051,2012,01,08,11,3.95
0610300051,2012,01,08,12,3.98
0610300051,2012,01,08,13,3.92
0610300051,2012,01,08,14,3.96
0610300051,2012,01,08,15,3.38
0610300051,2012,01,08,16,2.26
0610300051,2012,01,08,17,1.2
0610300051,2012,01,08,18,0.99
0610300051,2012,01,08,19,1.04
0610300051,2012,01,08,20,0.69
0610300051,2012,01,08,21,1.16
0610300051,2012,01,08,22,1.43
0610300051,2012,01,08,23,1.89
0610300051,2012,01,09,00,2.12
0610300051,2012,01,09,01,2.12
0610300051,2012,01,09,02,1.75
0610300051,2012,01,09,03,1.69
0610300051,2012,01,09,04,1.58
0610300051,2012,01,09,05,0.97
0610300051,2012,01,09,06,0.51
0610300051,2012,01,09,07,0.55
0610300051,2012,01,09,08,0.92
0610300051,2012,01,09,09,1.01
0610300051,2012,01,09,10,2.47
0610300051,2012,01,09,11,2.97
0610300051,2012,01,09,12,3.8
0610300051,2012,01,09,13,3.94
0610300051,2012,01,09,14,4.02
0610300051,2012,01,09,15,3.45
0610300051,2012,01,09,16,1.1
0610300051,2012,01,09,17,0.56
0610300051,2012,01,09,18,0.64
0610300051,2012,01,09,19,1.06
0610300051,2012,01,09,20,1.34
0610300051,2012,01,09,21,1.42
0610300051,2012,01,09,22,1.25
0610300051,2012,01,09,23,1.91
0610300051,2012,01,10,00,1.65
0610300051,2012,01,10,01,1.65
0610300051,2012,01,10,02,1.6
0610300051,2012,01,10,03,1.92
0610300051,2012,01,10,04,0.85
0610300051,2012,01,10,05,0.98
0610300051,2012,01,10,06,1.2
0610300051,2012,01,10,07,0.73
0610300051,2012,01,10,08,0.91
0610300051,2012,01,10,09,0.74
0610300051,2012,01,10,10,0.9
0610300051,2012,01,10,11,1.29
0610300051,2012,01,10,12,1.73
0610300051,2012,01,10,13,1.31
0610300051,2012,01,10,14,1.33
0610300051,2012,01,10,15,0.8
0610300051,2012,01,10,16,0.71
0610300051,2012,01,10,17,0.58
0610300051,2012,01,10,18,1.4
0610300051,2012,01,10,19,2.06
0610300051,2012,01,10,20,1.81
0610300051,2012,01,10,21,1.64
0610300051,2012,01,10,22,1.92
0610300051,2012,01,10,23,2.45
0610300051,2012,01,11,00,2.12
0610300051,2012,01,11,01,2.16
0610300051,2012,01,11,02,2.53
0610300051,2012,01,11,03,2.68
0610300051,2012,01,11,04,1.74
0610300051,2012,01,11,05,0.89
0610300051,2012,01,11,06,0.64
0610300051,2012,01,11,07,1.25
0610300051,2012,01,11,08,2.14
0610300051,2012,01,11,09,2.99
0610300051,2012,01,11,10,3.51
0610300051,2012,01,11,11,3.66
0610300051,2012,01,11,12,3.75
0610300051,2012,01,11,13,3.63
0610300051,2012,01,11,14,3.58
0610300051,2012,01,11,15,3.18
0610300051,2012,01,11,16,2.02
0610300051,2012,01,11,17,1.22
0610300051,2012,01,11,18,1
0610300051,2012,01,11,19,0.54
0610300051,2012,01,11,20,0.72
0610300051,2012,01,11,21,1.45
0610300051,2012,01,11,22,1.26
0610300051,2012,01,11,23,1.48
0610300051,2012,01,12,00,1.26
0610300051,2012,01,12,01,1.64
0610300051,2012,01,12,02,1
0610300051,2012,01,12,03,1.64
0610300051,2012,01,12,04,1.52
0610300051,2012,01,12,05,1.39
0610300051,2012,01,12,06,0.69
0610300051,2012,01,12,07,1.02
0610300051,2012,01,12,08,1.96
0610300051,2012,01,12,09,2.5
0610300051,2012,01,12,10,3.42
0610300051,2012,01,12,11,3.41
0610300051,2012,01,12,12,3.73
0610300051,2012,01,12,13,3.57
0610300051,2012,01,12,14,3.5
0610300051,2012,01,12,15,2.91
0610300051,2012,01,12,16,1.89
0610300051,2012,01,12,17,1.08
0610300051,2012,01,12,18,1.18
0610300051,2012,01,12,19,1.59
0610300051,2012,01,12,20,1.83
0610300051,2012,01,12,21,1.75
0610300051,2012,01,12,22,1.55
0610300051,2012,01,12,23,1.69
0610300051,2012,01,13,00,1.43
0610300051,2012,01,13,01,0.8
0610300051,2012,01,13,02,1.1
0610300051,2012,01,13,03,1.16
0610300051,2012,01,13,04,1.22
0610300051,2012,01,13,05,1.68
0610300051,2012,01,13,06,1.87
0610300051,2012,01,13,07,1.4
0610300051,2012,01,13,08,1.58
0610300051,2012,01,13,09,2.19
0610300051,2012,01,13,10,2.68
0610300051,2012,01,13,11,2.93
0610300051,2012,01,13,12,3.07
0610300051,2012,01,13,13,3.3
0610300051,2012,01,13,14,3.48
0610300051,2012,01,13,15,2.29
0610300051,2012,01,13,16,0.57
0610300051,2012,01,13,17,0.63
0610300051,2012,01,13,18,0.63
0610300051,2012,01,13,19,0.6
0610300051,2012,01,13,20,0.8
0610300051,2012,01,13,21,0.59
0610300051,2012,01,13,22,0.81
0610300051,2012,01,13,23,1.22
0610300051,2012,01,14,00,1.11
0610300051,2012,01,14,01,1.11
0610300051,2012,01,14,02,1.29
0610300051,2012,01,14,03,1.7
0610300051,2012,01,14,04,1.27
0610300051,2012,01,14,05,1.68
0610300051,2012,01,14,06,0.91
0610300051,2012,01,14,07,1.31
0610300051,2012,01,14,08,1.7
0610300051,2012,01,14,09,2.19
0610300051,2012,01,14,10,2.24
0610300051,2012,01,14,11,2.97
0610300051,2012,01,14,12,3.03
0610300051,2012,01,14,13,3.34
0610300051,2012,01,14,14,3.81
0610300051,2012,01,14,15,3.34
0610300051,2012,01,14,16,1.93
0610300051,2012,01,14,17,0.75
0610300051,2012,01,14,18,0.89
0610300051,2012,01,14,19,1.46
0610300051,2012,01,14,20,1.46
0610300051,2012,01,14,21,1.06
0610300051,2012,01,14,22,1.31
0610300051,2012,01,14,23,1.4
0610300051,2012,01,15,00,1.63
0610300051,2012,01,15,01,1.8
0610300051,2012,01,15,02,1.99
0610300051,2012,01,15,03,1.9
0610300051,2012,01,15,04,1.29
0610300051,2012,01,15,05,1.54
0610300051,2012,01,15,06,1.7
0610300051,2012,01,15,07,1.16
0610300051,2012,01,15,08,1.56
0610300051,2012,01,15,09,2.4
0610300051,2012,01,15,10,3.26
0610300051,2012,01,15,11,3.45
0610300051,2012,01,15,12,4.21
0610300051,2012,01,15,13,4.37
0610300051,2012,01,15,14,4.4
0610300051,2012,01,15,15,4.3
0610300051,2012,01,15,16,4.16
0610300051,2012,01,15,17,4.04
0610300051,2012,01,15,18,3.98
0610300051,2012,01,15,19,3.95
0610300051,2012,01,15,20,3.93
0610300051,2012,01,15,21,3.8
0610300051,2012,01,15,22,3.85
0610300051,2012,01,15,23,3.64
0610300051,2012,01,16,00,3.27
0610300051,2012,01,16,01,2.99
0610300051,2012,01,16,02,2.55
0610300051,2012,01,16,03,1.84
0610300051,2012,01,16,04,1.81
0610300051,2012,01,16,05,1.12
0610300051,2012,01,16,06,1.27
0610300051,2012,01,16,07,1.59
0610300051,2012,01,16,08,2.29
0610300051,2012,01,16,09,3.14
0610300051,2012,01,16,10,3.44
0610300051,2012,01,16,11,3.81
0610300051,2012,01,16,12,3.93
0610300051,2012,01,16,13,3.95
0610300051,2012,01,16,14,3.76
0610300051,2012,01,16,15,3.56
0610300051,2012,01,16,16,1.67
0610300051,2012,01,16,17,1.32
0610300051,2012,01,16,18,0.74
0610300051,2012,01,16,19,1.13
0610300051,2012,01,16,20,1.37
0610300051,2012,01,16,21,0.82
0610300051,2012,01,16,22,1.41
0610300051,2012,01,16,23,1.21
0610300051,2012,01,17,00,1.53
0610300051,2012,01,17,01,1.13
0610300051,2012,01,17,02,1.81
0610300051,2012,01,17,03,1.79
0610300051,2012,01,17,04,1.17
0610300051,2012,01,17,05,0.86
0610300051,2012,01,17,06,1
0610300051,2012,01,17,07,0.92
0610300051,2012,01,17,08,1.05
0610300051,2012,01,17,09,1.85
0610300051,2012,01,17,10,2.82
0610300051,2012,01,17,11,3.19
0610300051,2012,01,17,12,3.41
0610300051,2012,01,17,13,3.66
0610300051,2012,01,17,14,3.55
0610300051,2012,01,17,15,3.14
0610300051,2012,01,17,16,2.04
0610300051,2012,01,17,17,1.37
0610300051,2012,01,17,18,0.7
0610300051,2012,01,17,19,0.64
0610300051,2012,01,17,20,0.66
0610300051,2012,01,17,21,0.59
0610300051,2012,01,17,22,0.73
0610300051,2012,01,17,23,0.59
0610300051,2012,01,18,00,0.67
0610300051,2012,01,18,01,0.93
0610300051,2012,01,18,02,0.95
0610300051,2012,01,18,03,1.21
0610300051,2012,01,18,04,1.51
0610300051,2012,01,18,05,1.66
0610300051,2012,01,18,06,1.55
0610300051,2012,01,18,07,1.45
0610300051,2012,01,18,08,1.77
0610300051,2012,01,18,09,1.73
0610300051,2012,01,18,10,2.56
0610300051,2012,01,18,11,2.08
0610300051,2012,01,18,12,2.05
0610300051,2012,01,18,13,2.33
0610300051,2012,01,18,14,1.89
0610300051,2012,01,18,15,2.1
0610300051,2012,01,18,16,2.03
0610300051,2012,01,18,17,1.97
0610300051,2012,01,18,18,2.23
0610300051,2012,01,18,19,2.22
0610300051,2012,01,18,20,2
0610300051,2012,01,18,21,1.66
0610300051,2012,01,18,22,1.37
0610300051,2012,01,18,23,1.36
0610300051,2012,01,19,00,1.28
0610300051,2012,01,19,01,1.24
0610300051,2012,01,19,02,1.28
0610300051,2012,01,19,03,1.21
0610300051,2012,01,19,04,1.23
0610300051,2012,01,19,05,1.15
0610300051,2012,01,19,06,1.22
0610300051,2012,01,19,07,0.99
0610300051,2012,01,19,08,0.93
0610300051,2012,01,19,09,1.09
0610300051,2012,01,19,10,1.23
0610300051,2012,01,19,11,1.6
0610300051,2012,01,19,12,2.59
0610300051,2012,01,19,13,2.48
0610300051,2012,01,19,14,2.26
0610300051,2012,01,19,15,2.37
0610300051,2012,01,19,16,2.57
0610300051,2012,01,19,17,2.89
0610300051,2012,01,19,18,2.88
0610300051,2012,01,19,19,2.61
0610300051,2012,01,19,20,2.25
0610300051,2012,01,19,21,1.96
0610300051,2012,01,19,22,1.87
0610300051,2012,01,19,23,1.93
0610300051,2012,01,20,00,1.96
0610300051,2012,01,20,01,2.21
0610300051,2012,01,20,02,2.1
0610300051,2012,01,20,03,1.89
0610300051,2012,01,20,04,1.77
0610300051,2012,01,20,05,1.51
0610300051,2012,01,20,06,1.41
0610300051,2012,01,20,07,1.18
0610300051,2012,01,20,08,0.96
0610300051,2012,01,20,09,1.05
0610300051,2012,01,20,10,0.95
0610300051,2012,01,20,11,0.71
0610300051,2012,01,20,12,0.72
0610300051,2012,01,20,13,0.84
0610300051,2012,01,20,14,0.99
0610300051,2012,01,20,15,1.26
0610300051,2012,01,20,16,1.59
0610300051,2012,01,20,17,2
0610300051,2012,01,20,18,2.32
0610300051,2012,01,20,19,1.8
0610300051,2012,01,20,20,2.01
0610300051,2012,01,20,21,1.71
0610300051,2012,01,20,22,1.36
0610300051,2012,01,20,23,1.2
0610300051,2012,01,21,00,1.26
0610300051,2012,01,21,01,1.14
0610300051,2012,01,21,02,1.16
0610300051,2012,01,21,03,0.95
0610300051,2012,01,21,04,0.76
0610300051,2012,01,21,05,1.26
0610300051,2012,01,21,06,3.55
0610300051,2012,01,21,07,3.58
0610300051,2012,01,21,08,2.96
0610300051,2012,01,21,09,2.57
0610300051,2012,01,21,10,2.64
0610300051,2012,01,21,11,3
0610300051,2012,01,21,12,3.52
0610300051,2012,01,21,13,3.53
0610300051,2012,01,21,14,3.58
0610300051,2012,01,21,15,3.66
0610300051,2012,01,21,16,3.39
0610300051,2012,01,21,17,3.44
0610300051,2012,01,21,18,1.71
0610300051,2012,01,21,19,1.88
0610300051,2012,01,21,20,0.62
0610300051,2012,01,21,21,0.63
0610300051,2012,01,21,22,0.89
0610300051,2012,01,21,23,1.5
0610300051,2012,01,22,00,1.94
0610300051,2012,01,22,01,2.02
0610300051,2012,01,22,02,1.89
0610300051,2012,01,22,03,1.96
0610300051,2012,01,22,04,1.94
0610300051,2012,01,22,05,1.83
0610300051,2012,01,22,06,1.93
0610300051,2012,01,22,07,1.78
0610300051,2012,01,22,08,1.68
0610300051,2012,01,22,09,1.89
0610300051,2012,01,22,10,2.29
0610300051,2012,01,22,11,2.83
0610300051,2012,01,22,12,2.78
0610300051,2012,01,22,13,3.01
0610300051,2012,01,22,14,3.41
0610300051,2012,01,22,15,3.4
0610300051,2012,01,22,16,3.37
0610300051,2012,01,22,17,3.38
0610300051,2012,01,22,18,3.27
0610300051,2012,01,22,19,2.97
0610300051,2012,01,22,20,2.92
0610300051,2012,01,22,21,2.92
0610300051,2012,01,22,22,3.1
0610300051,2012,01,22,23,3.19
0610300051,2012,01,23,00,3.14
0610300051,2012,01,23,01,3.12
0610300051,2012,01,23,02,3.05
0610300051,2012,01,23,03,2.91
0610300051,2012,01,23,04,2.84
0610300051,2012,01,23,05,2.61
0610300051,2012,01,23,06,2.6
0610300051,2012,01,23,07,2.36
0610300051,2012,01,23,08,2.26
0610300051,2012,01,23,09,2.73
0610300051,2012,01,23,10,2.99
0610300051,2012,01,23,11,3.07
0610300051,2012,01,23,12,3.33
0610300051,2012,01,23,13,3.36
0610300051,2012,01,23,14,3.32
0610300051,2012,01,23,15,2.91
0610300051,2012,01,23,16,2.45
0610300051,2012,01,23,17,2.17
0610300051,2012,01,23,18,1.69
0610300051,2012,01,23,19,1.18
0610300051,2012,01,23,20,1.39
0610300051,2012,01,23,21,1.11
0610300051,2012,01,23,22,1.53
0610300051,2012,01,23,23,1.48
0610300051,2012,01,24,00,1.39
0610300051,2012,01,24,01,1.45
0610300051,2012,01,24,02,1.32
0610300051,2012,01,24,03,1.3
0610300051,2012,01,24,04,1.24
0610300051,2012,01,24,05,1.21
0610300051,2012,01,24,06,1.12
0610300051,2012,01,24,07,0.56
0610300051,2012,01,24,08,0.63
0610300051,2012,01,24,09,1.08
0610300051,2012,01,24,10,1.28
0610300051,2012,01,24,11,1.64
0610300051,2012,01,24,12,1.88
0610300051,2012,01,24,13,2.15
0610300051,2012,01,24,14,2.23
0610300051,2012,01,24,15,1.7
0610300051,2012,01,24,16,0.5
0610300051,2012,01,24,17,0.61
0610300051,2012,01,24,18,0.5
0610300051,2012,01,24,19,0.6
0610300051,2012,01,24,20,0.65
0610300051,2012,01,24,21,0.71
0610300051,2012,01,24,22,0.65
0610300051,2012,01,24,23,0.48
0610300051,2012,01,25,00,0.66
0610300051,2012,01,25,01,0.84
0610300051,2012,01,25,02,0.72
0610300051,2012,01,25,03,0.92
0610300051,2012,01,25,04,1.07
0610300051,2012,01,25,05,1.34
0610300051,2012,01,25,06,1.11
0610300051,2012,01,25,07,1.24
0610300051,2012,01,25,08,1.75
0610300051,2012,01,25,09,1.76
0610300051,2012,01,25,10,1.89
0610300051,2012,01,25,11,2.25
0610300051,2012,01,25,12,2.46
0610300051,2012,01,25,13,2.62
0610300051,2012,01,25,14,2.68
0610300051,2012,01,25,15,2.58
0610300051,2012,01,25,16,1.97
0610300051,2012,01,25,17,1.3
0610300051,2012,01,25,18,0.48
0610300051,2012,01,25,19,0.58
0610300051,2012,01,25,20,0.85
0610300051,2012,01,25,21,0.88
0610300051,2012,01,25,22,0.44
0610300051,2012,01,25,23,0.41
0610300051,2012,01,26,00,0.45
0610300051,2012,01,26,01,0.51
0610300051,2012,01,26,02,0.78
0610300051,2012,01,26,03,0.89
0610300051,2012,01,26,04,1.01
0610300051,2012,01,26,05,1.15
0610300051,2012,01,26,06,1.11
0610300051,2012,01,26,07,1.09
0610300051,2012,01,26,08,0.91
0610300051,2012,01,26,09,1
0610300051,2012,01,26,10,1.37
0610300051,2012,01,26,11,1.53
0610300051,2012,01,26,12,1.73
0610300051,2012,01,26,13,2.16
0610300051,2012,01,26,14,2.11
0610300051,2012,01,26,15,1.92
0610300051,2012,01,26,16,1.24
0610300051,2012,01,26,17,0.72
0610300051,2012,01,26,18,1.19
0610300051,2012,01,26,19,0.87
0610300051,2012,01,26,20,0.92
0610300051,2012,01,26,21,1.15
0610300051,2012,01,26,22,1.69
0610300051,2012,01,26,23,1.98
0610300051,2012,01,27,00,2.24
0610300051,2012,01,27,01,2.93
0610300051,2012,01,27,02,3.2
0610300051,2012,01,27,03,3.31
0610300051,2012,01,27,04,3.35
0610300051,2012,01,27,05,3.33
0610300051,2012,01,27,06,3.31
0610300051,2012,01,27,07,3.15
0610300051,2012,01,27,08,3.35
0610300051,2012,01,27,09,3.7
0610300051,2012,01,27,10,3.71
0610300051,2012,01,27,11,3.75
0610300051,2012,01,27,12,3.87
0610300051,2012,01,27,13,3.85
0610300051,2012,01,27,14,3.69
0610300051,2012,01,27,15,3.51
0610300051,2012,01,27,16,3.39
0610300051,2012,01,27,17,3.3
0610300051,2012,01,27,18,3.31
0610300051,2012,01,27,19,3.35
0610300051,2012,01,27,20,2.67
0610300051,2012,01,27,21,1.56
0610300051,2012,01,27,22,1.09
0610300051,2012,01,27,23,1.75
0610300051,2012,01,28,00,2.32
0610300051,2012,01,28,01,1.51
0610300051,2012,01,28,02,2.34
0610300051,2012,01,28,03,2.28
0610300051,2012,01,28,04,2.43
0610300051,2012,01,28,05,1.46
0610300051,2012,01,28,06,0.84
0610300051,2012,01,28,07,1.59
0610300051,2012,01,28,08,2.19
0610300051,2012,01,28,09,3.22
0610300051,2012,01,28,10,3.44
0610300051,2012,01,28,11,3.61
0610300051,2012,01,28,12,3.63
0610300051,2012,01,28,13,3.92
0610300051,2012,01,28,14,3.66
0610300051,2012,01,28,15,3.4
0610300051,2012,01,28,16,3.16
0610300051,2012,01,28,17,2.48
0610300051,2012,01,28,18,1.69
0610300051,2012,01,28,19,2.56
0610300051,2012,01,28,20,2.15
0610300051,2012,01,28,21,1.5
0610300051,2012,01,28,22,1.33
0610300051,2012,01,28,23,0.86
0610300051,2012,01,29,00,0.96
0610300051,2012,01,29,01,1.61
0610300051,2012,01,29,02,2.02
0610300051,2012,01,29,03,1.67
0610300051,2012,01,29,04,1.74
0610300051,2012,01,29,05,1.71
0610300051,2012,01,29,06,1.88
0610300051,2012,01,29,07,2.08
0610300051,2012,01,29,08,2.37
0610300051,2012,01,29,09,2.61
0610300051,2012,01,29,10,2.56
0610300051,2012,01,29,11,2.77
0610300051,2012,01,29,12,3.12
0610300051,2012,01,29,13,3.35
0610300051,2012,01,29,14,3.15
0610300051,2012,01,29,15,2.34
0610300051,2012,01,29,16,1.37
0610300051,2012,01,29,17,0.77
0610300051,2012,01,29,18,0.77
0610300051,2012,01,29,19,0.95
0610300051,2012,01,29,20,1.01
0610300051,2012,01,29,21,1.11
0610300051,2012,01,29,22,0.91
0610300051,2012,01,29,23,0.96
0610300051,2012,01,30,00,0.7
0610300051,2012,01,30,01,0.62
0610300051,2012,01,30,02,0.78
0610300051,2012,01,30,03,0.81
0610300051,2012,01,30,04,0.75
0610300051,2012,01,30,05,0.88
0610300051,2012,01,30,06,0.84
0610300051,2012,01,30,07,0.92
0610300051,2012,01,30,08,1.86
0610300051,2012,01,30,09,2.34
0610300051,2012,01,30,10,2.7
0610300051,2012,01,30,11,3.81
0610300051,2012,01,30,12,3.61
0610300051,2012,01,30,13,3.68
0610300051,2012,01,30,14,4.03
0610300051,2012,01,30,15,4
0610300051,2012,01,30,16,1.71
0610300051,2012,01,30,17,0.65
0610300051,2012,01,30,18,0.66
0610300051,2012,01,30,19,0.59
0610300051,2012,01,30,20,0.48
0610300051,2012,01,30,21,0.61
0610300051,2012,01,30,22,0.76
0610300051,2012,01,30,23,0.84
0610300051,2012,01,31,00,0.56
0610300051,2012,01,31,01,0.98
0610300051,2012,01,31,02,1.46
0610300051,2012,01,31,03,0.96
0610300051,2012,01,31,04,0.89
0610300051,2012,01,31,05,0.79
0610300051,2012,01,31,06,0.99
0610300051,2012,01,31,07,1.64
0610300051,2012,01,31,08,1.59
0610300051,2012,01,31,09,1.96
0610300051,2012,01,31,10,2.43
0610300051,2012,01,31,11,3.01
0610300051,2012,01,31,12,3.21
0610300051,2012,01,31,13,3.41
0610300051,2012,01,31,14,2.9
0610300051,2012,01,31,15,2.49
0610300051,2012,01,31,16,2
0610300051,2012,01,31,17,1.94
0610300051,2012,01,31,18,1.08
0610300051,2012,01,31,19,1.07
0610300051,2012,01,31,20,1.95
0610300051,2012,01,31,21,1.89
0610300051,2012,01,31,22,2.12
0610300051,2012,01,31,23,2.39
0610300051,2012,02,01,00,2.2
0610300051,2012,02,01,01,2.3
0610300051,2012,02,01,02,2.01
0610300051,2012,02,01,03,1.64
0610300051,2012,02,01,04,1.89
0610300051,2012,02,01,05,2.12
0610300051,2012,02,01,06,2.04
0610300051,2012,02,01,07,2.15
0610300051,2012,02,01,08,2.27
0610300051,2012,02,01,09,2.53
0610300051,2012,02,01,10,2.89
0610300051,2012,02,01,11,3.18
0610300051,2012,02,01,12,3.32
0610300051,2012,02,01,13,3.77
0610300051,2012,02,01,14,3.71
0610300051,2012,02,01,15,3.2
0610300051,2012,02,01,16,2.24
0610300051,2012,02,01,17,2.15
0610300051,2012,02,01,18,2.23
0610300051,2012,02,01,19,1.88
0610300051,2012,02,01,20,1.58
0610300051,2012,02,01,21,2.08
0610300051,2012,02,01,22,1.98
0610300051,2012,02,01,23,1.77
0610300051,2012,02,02,00,1.34
0610300051,2012,02,02,01,2
0610300051,2012,02,02,02,2.71
0610300051,2012,02,02,03,3.12
0610300051,2012,02,02,04,3.37
0610300051,2012,02,02,05,3.35
0610300051,2012,02,02,06,3.06
0610300051,2012,02,02,07,3.29
0610300051,2012,02,02,08,3.39